Date,TemperatureHighF,TemperatureAvgF,TemperatureLowF,DewpointHighF,DewpointAvgF,DewpointLowF,HumidityHigh,HumidityAvg,HumidityLow,PressureMaxIn,PressureMinIn,WindSpeedMaxMPH,WindSpeedAvgMPH,GustSpeedMaxMPH,PrecipitationSumIn
2014-1-1,79,65,46,39,25,16,41,23,16,30.20,30.01,13,5,16,0.00
2014-1-2,80,67,52,35,27,20,36,23,16,30.16,29.99,10,4,13,0.00
2014-1-3,77,60,48,39,30,24,51,34,19,30.11,29.90,5,2,8,0.00
2014-1-4,71,59,48,47,30,20,55,35,19,30.07,29.92,8,2,9,0.24
2014-1-5,71,64,58,24,23,22,24,21,17,30.15,30.03,18,8,21,0.00
2014-1-6,76,62,48,30,22,15,26,22,16,30.22,30.09,19,7,24,0.01
2014-1-7,72,57,45,31,21,13,37,26,16,30.20,30.02,5,2,8,0.00
2014-1-8,69,54,43,48,32,17,92,46,22,30.17,29.99,4,2,7,0.00
2014-1-9,66,51,42,48,40,31,99,68,30,30.13,29.98,5,2,10,0.00
2014-1-10,75,60,45,48,36,26,74,42,22,30.17,30.00,6,2,8,0.00
2014-1-11,78,61,48,40,34,24,68,40,19,30.19,30.05,7,2,10,0.00
2014-1-12,72,54,44,43,36,32,69,52,24,30.14,30.05,4,2,5,0.00
2014-1-13,73,66,62,24,23,20,22,19,16,30.33,30.25,14,8,20,0.06
2014-1-14,76,68,62,30,25,22,22,19,16,30.31,30.20,15,9,26,0.00
2014-1-15,79,70,65,30,25,23,20,18,16,30.25,30.12,17,12,27,0.02
2014-1-16,79,71,65,30,25,23,20,18,16,30.14,30.04,15,9,26,0.00
2014-1-17,86,70,56,36,26,21,25,19,15,30.16,29.99,13,7,20,0.00
2014-1-18,81,69,57,31,25,21,26,19,15,30.13,29.98,8,4,11,0.00
2014-1-19,81,67,51,30,24,17,26,20,15,30.19,30.04,8,3,10,0.00
2014-1-20,81,67,49,32,24,16,28,21,15,30.20,30.04,11,3,14,0.00
2014-1-21,77,68,57,30,24,21,24,19,16,30.22,30.05,13,4,17,0.00
2014-1-22,77,64,47,36,26,17,47,25,17,30.11,29.88,5,2,8,0.00
2014-1-23,74,63,49,44,27,17,46,26,16,30.12,29.89,11,4,16,0.00
2014-1-24,71,63,59,62,26,19,97,26,17,30.24,30.11,14,6,19,0.00
2014-1-25,72,61,46,41,31,22,66,35,17,30.26,30.10,9,3,12,0.00
2014-1-26,68,54,45,46,42,36,84,63,41,30.24,30.06,4,2,7,0.00
2014-1-27,69,55,46,51,46,39,95,71,50,30.17,29.99,8,3,10,0.00
2014-1-28,75,60,46,50,39,27,88,48,21,30.16,30.01,7,2,9,0.00
2014-1-29,78,63,52,48,36,25,69,39,20,30.15,29.93,6,2,10,0.00
2014-1-30,60,53,49,52,44,31,99,75,34,30.00,29.92,10,3,11,0.15
2014-1-31,55,46,36,50,44,35,99,94,63,30.06,29.93,9,4,13,0.22
2014-2-1,59,46,34,40,25,11,99,49,22,30.18,29.98,13,4,26,0.00
2014-2-2,59,47,36,44,29,11,97,55,23,30.15,30.00,10,3,15,0.00
2014-2-3,54,45,36,44,40,35,99,85,60,30.10,29.91,7,3,12,0.01
2014-2-4,53,45,34,44,41,34,99,87,62,30.16,30.02,6,2,8,0.00
2014-2-5,59,46,38,43,40,37,99,82,48,30.16,30.02,7,2,11,0.00
2014-2-6,51,46,42,47,44,40,99,92,80,30.13,30.02,8,2,15,0.18
2014-2-7,57,48,43,51,46,42,99,93,69,30.27,30.08,5,2,8,0.08
2014-2-8,64,49,38,48,44,38,99,84,51,30.30,30.17,6,2,8,0.00
2014-2-9,62,50,42,51,47,42,99,91,62,30.29,30.11,5,2,8,0.00
2014-2-10,67,54,44,52,48,38,99,83,45,30.21,30.01,9,3,16,0.00
2014-2-11,77,65,54,47,36,26,58,36,18,30.14,30.02,12,4,17,0.00
2014-2-12,80,65,53,44,32,23,51,31,17,30.18,30.02,8,3,11,0.00
2014-2-13,85,67,53,40,29,17,39,25,16,30.15,29.95,7,2,9,0.00
2014-2-14,86,69,53,42,32,23,43,26,15,30.12,29.95,5,2,8,0.00
2014-2-15,85,68,54,39,30,23,37,25,16,30.08,29.96,7,2,9,0.00
2014-2-16,78,62,50,45,31,17,57,32,17,30.16,29.96,7,2,10,0.00
2014-2-17,74,59,48,49,39,28,88,51,21,30.15,29.97,9,2,12,0.00
2014-2-18,72,57,43,50,41,20,85,57,27,30.10,29.95,6,2,8,0.00
2014-2-19,68,53,44,50,42,20,91,66,33,30.05,29.89,7,2,11,0.00
2014-2-20,82,68,47,44,31,22,90,27,16,30.04,29.92,16,6,21,0.00
2014-2-21,78,66,51,34,28,21,46,25,18,30.04,29.87,8,3,10,0.00
2014-2-22,73,60,46,37,27,23,43,29,18,30.03,29.86,6,3,8,0.00
2014-2-23,73,59,46,41,32,24,67,39,19,30.08,29.89,7,2,9,0.00
2014-2-24,77,60,46,45,36,29,74,44,20,30.10,29.91,5,2,8,0.00
2014-2-25,72,56,44,48,42,31,99,64,23,30.13,29.95,10,2,12,0.00
2014-2-26,59,51,46,50,47,43,99,86,61,30.14,30.04,7,2,12,0.00
2014-2-27,67,54,49,57,50,44,99,88,58,30.08,29.89,8,3,11,0.47
2014-2-28,55,52,46,55,51,46,99,98,96,29.92,29.71,16,7,24,4.71
2014-3-1,52,48,45,51,47,44,99,98,91,30.03,29.82,11,3,19,0.84
2014-3-2,55,49,44,52,47,43,99,95,76,30.22,30.04,6,2,8,0.14
2014-3-3,67,52,42,53,47,41,99,85,54,30.20,30.02,7,2,8,0.00
2014-3-4,63,51,43,56,48,42,99,90,62,30.13,29.97,6,2,8,0.01
2014-3-5,79,62,46,55,46,38,99,63,24,30.12,30.00,6,2,9,0.00
2014-3-6,72,58,47,59,49,40,99,75,39,30.15,29.97,8,3,10,0.00
2014-3-7,69,60,46,55,44,22,99,65,21,30.06,29.91,12,4,22,0.01
2014-3-8,78,67,56,34,26,22,42,22,17,30.18,29.99,16,6,23,0.04
2014-3-9,82,67,55,32,26,22,33,22,16,30.19,30.05,10,5,16,0.00
2014-3-10,79,62,50,37,29,25,53,31,17,30.17,29.99,11,3,16,0.00
2014-3-11,76,63,46,46,32,23,57,33,22,30.09,29.91,14,4,20,0.00
2014-3-12,75,62,54,52,29,20,60,31,17,30.04,29.91,21,9,29,0.02
2014-3-13,69,54,44,50,45,28,99,74,35,30.11,29.90,8,3,11,0.00
2014-3-14,73,56,41,52,44,36,99,68,30,30.21,30.03,9,3,11,0.00
2014-3-15,82,66,47,54,37,24,79,40,15,30.31,30.11,12,4,18,0.00
2014-3-16,87,74,58,37,28,22,25,18,15,30.25,30.11,11,6,13,0.00
2014-3-17,77,61,48,53,38,20,99,48,23,30.20,29.81,8,3,11,0.00
2014-3-18,72,58,42,54,44,26,99,65,25,29.96,29.81,11,5,19,0.01
2014-3-19,77,63,49,48,30,17,62,30,16,30.15,29.96,11,4,13,0.00
2014-3-20,74,60,47,53,34,19,93,40,19,30.13,29.92,7,2,9,0.00
2014-3-21,65,52,42,49,46,39,99,81,56,30.09,29.95,8,3,11,0.00
2014-3-22,62,51,43,50,47,42,99,88,58,30.17,30.05,8,2,14,0.00
2014-3-23,70,55,43,53,49,42,99,84,55,30.18,30.01,6,2,8,0.00
2014-3-24,67,53,46,56,50,45,99,91,63,30.17,30.03,6,2,9,0.01
2014-3-25,58,51,49,55,50,48,99,97,77,30.09,29.95,5,2,10,0.04
2014-3-26,56,49,46,50,47,42,99,93,60,30.04,29.94,15,6,18,0.24
2014-3-27,60,49,40,50,44,40,99,85,52,30.19,30.03,9,4,12,0.02
2014-3-28,68,54,39,51,46,39,99,78,47,30.21,30.07,9,2,11,0.00
2014-3-29,76,60,46,52,48,44,98,70,39,30.23,29.99,7,2,11,0.00
2014-3-30,66,53,43,53,44,34,99,75,42,30.13,29.99,10,4,14,0.04
2014-3-31,63,50,37,47,42,34,98,76,50,30.13,29.99,11,3,14,0.00
2014-4-1,56,48,43,47,41,31,99,80,42,30.06,29.98,9,4,15,0.54
2014-4-2,53,45,37,44,40,36,99,86,57,30.16,29.98,12,4,16,0.14
2014-4-3,64,50,35,46,40,32,98,71,44,30.19,30.03,8,3,11,0.00
2014-4-4,60,48,36,45,41,33,99,76,51,30.10,29.96,8,2,11,0.00
2014-4-5,61,49,34,48,42,33,99,80,61,30.11,29.96,8,2,10,0.00
2014-4-6,78,62,43,42,33,26,85,38,18,30.13,30.00,12,5,18,0.00
2014-4-7,83,71,55,40,33,26,46,26,17,30.18,30.03,9,3,14,0.00
2014-4-8,89,72,54,43,34,23,45,27,16,30.19,29.99,8,3,11,0.00
2014-4-9,90,71,53,39,29,18,34,21,14,30.16,29.92,7,3,11,0.00
2014-4-10,87,69,56,37,29,21,44,24,15,30.08,29.90,6,2,8,0.00
2014-4-11,81,65,44,48,31,17,75,31,16,30.02,29.84,7,3,8,0.00
2014-4-12,62,52,45,49,47,26,99,83,40,30.04,29.91,8,2,9,0.00
2014-4-13,63,52,46,50,47,45,99,84,59,30.10,29.98,10,2,11,0.00
2014-4-14,82,65,43,46,37,27,99,43,15,30.11,29.98,14,4,18,0.00
2014-4-15,82,67,51,50,38,28,59,36,16,30.08,29.83,9,3,13,0.00
2014-4-16,75,62,48,53,40,24,80,45,27,29.95,29.78,8,2,11,0.00
2014-4-17,70,58,44,55,49,30,99,74,34,29.99,29.84,6,2,8,0.00
2014-4-18,69,56,47,55,51,47,99,86,50,30.02,29.87,7,3,12,0.01
2014-4-19,74,59,46,55,51,45,99,78,51,30.12,29.96,8,3,11,0.00
2014-4-20,79,65,50,56,52,47,93,65,44,30.13,29.99,6,2,10,0.00
2014-4-21,83,66,52,56,50,44,84,59,26,30.10,29.94,8,2,9,0.00
2014-4-22,67,55,47,52,49,44,99,83,51,30.06,29.90,10,3,13,0.00
2014-4-23,70,55,42,52,47,42,99,78,52,30.03,29.90,9,3,12,0.00
2014-4-24,74,60,47,51,46,38,93,63,36,30.03,29.91,9,3,11,0.00
2014-4-25,65,53,43,52,45,-100,99,79,54,30.01,29.85,8,-18,13,0.26
2014-4-26,59,48,41,48,42,40,99,83,51,30.08,29.82,9,5,17,0.66
2014-4-27,64,53,44,49,46,42,99,79,55,30.10,29.97,8,2,11,0.00
2014-4-28,81,63,42,53,45,31,95,58,23,30.09,29.88,9,3,12,0.00
2014-4-29,85,74,67,36,29,23,28,19,15,30.07,29.96,21,8,30,0.15
2014-4-30,82,73,63,30,26,23,21,17,15,30.07,29.93,28,10,59,0.92
2014-5-1,89,74,59,37,28,22,32,19,15,30.10,29.93,13,5,17,0.00
2014-5-2,92,79,63,37,31,22,25,18,14,30.05,29.89,11,4,15,0.00
2014-5-3,89,73,58,44,36,25,44,27,16,30.02,29.86,7,3,10,0.00
2014-5-4,84,68,52,52,34,22,48,30,16,30.06,29.90,8,3,12,0.00
2014-5-5,71,60,51,52,42,21,99,55,23,30.05,29.94,8,2,10,0.00
2014-5-6,54,49,46,51,46,42,99,89,66,29.98,29.89,12,4,15,0.01
2014-5-7,63,53,46,50,48,46,99,84,61,30.08,29.93,10,3,13,0.00
2014-5-8,66,55,47,50,47,45,99,77,53,30.15,30.03,8,3,13,0.00
2014-5-9,71,58,45,54,50,44,99,77,51,30.16,29.99,8,2,12,0.00
2014-5-10,67,56,45,54,50,44,99,84,62,30.03,29.85,9,3,12,0.00
2014-5-11,77,60,43,48,32,20,99,45,16,30.05,29.85,15,5,21,0.17
2014-5-12,86,71,56,36,27,22,26,19,15,30.08,29.93,11,5,16,0.00
2014-5-13,87,76,67,36,29,23,20,17,15,30.12,30.01,13,6,21,0.00
2014-5-14,94,80,69,38,30,23,19,16,14,30.11,29.94,19,7,27,0.00
2014-5-15,95,84,70,38,33,23,19,16,13,30.07,29.93,11,4,15,0.00
2014-5-16,94,80,65,38,32,24,35,19,14,30.07,29.89,8,3,13,0.00
2014-5-17,85,73,56,57,43,26,64,35,21,29.99,29.82,8,2,11,0.00
2014-5-18,76,64,53,55,47,30,88,55,32,29.97,29.86,7,3,10,0.00
2014-5-19,70,59,51,54,52,49,98,78,51,30.02,29.92,8,4,11,0.00
2014-5-20,62,54,48,52,48,46,99,82,56,30.05,29.99,11,4,15,0.00
2014-5-21,66,54,45,51,45,-100,99,77,56,30.06,29.96,8,-19,12,0.00
2014-5-22,59,45,49,53,26,-100,99,76,72,30.08,30.01,6,-165,8,0.00
2014-5-23,67,50,51,55,28,-100,99,67,59,30.09,29.99,8,-164,11,0.00
2014-5-24,62,55,53,57,51,-100,99,93,81,30.09,29.98,4,-19,8,0.00
2014-5-25,81,58,49,61,37,-100,99,64,45,30.03,29.87,6,-123,8,0.00
2014-5-26,84,72,57,60,55,49,86,59,32,30.03,29.89,7,2,10,0.00
2014-5-27,88,71,59,60,53,-100,84,58,33,30.03,29.91,8,-19,11,0.00
2014-5-28,82,70,56,58,53,45,78,56,33,29.99,29.83,8,2,10,0.00
2014-5-29,83,68,53,57,53,36,96,60,35,29.97,29.84,6,2,9,0.00
2014-5-30,84,69,54,60,53,47,88,60,33,29.98,29.82,8,3,13,0.00
2014-5-31,85,69,52,56,46,31,78,45,22,29.97,29.85,8,3,10,0.00
2014-6-1,84,70,53,54,40,20,67,36,19,29.97,29.81,9,3,11,0.00
2014-6-2,84,69,52,56,40,17,63,37,17,29.93,29.81,9,3,11,0.00
2014-6-6,77,68,52,58,54,38,92,61,38,29.92,29.80,8,3,10,0.00
2014-6-7,78,59,47,58,44,-100,99,70,47,29.91,29.76,8,-60,11,0.00
2014-6-8,85,61,54,60,28,-100,93,45,40,29.86,29.73,8,-185,10,0.00
2014-6-9,95,73,65,62,51,-100,73,51,25,29.84,29.73,6,-39,38,0.00
2014-6-10,77,67,50,60,55,45,99,68,50,29.99,29.77,6,2,10,0.18
2014-6-11,80,65,47,59,52,32,99,68,32,30.00,29.85,7,2,11,0.07
2014-6-12,81,68,54,58,50,34,89,56,18,30.03,29.89,6,2,11,0.00
2014-6-13,79,60,52,55,34,-100,85,50,24,30.02,29.87,8,-102,13,0.00
2014-6-14,79,39,51,56,-18,-100,73,26,34,29.94,29.82,8,-456,11,0.33
2014-6-15,79,46,51,55,1,-100,99,39,27,29.98,29.82,7,-331,11,0.00
2014-6-16,78,62,46,58,50,42,99,71,41,29.99,29.86,10,2,11,0.01
2014-6-17,74,55,49,53,28,-100,83,49,37,30.01,29.91,10,-128,13,0.02
2014-6-18,78,60,44,54,35,-100,71,46,34,30.03,29.90,7,-63,9,0.00
2014-6-19,86,69,51,59,47,30,78,48,18,30.01,29.88,7,2,10,0.00
2014-6-20,90,64,59,63,23,-100,96,33,22,29.98,29.85,6,-185,151,0.00
2014-6-21,88,66,58,57,24,-100,50,28,19,29.97,29.83,24,-143,24,0.00
2014-6-22,82,45,60,58,-8,-100,72,27,18,29.97,29.86,7,-373,9,0.00
2014-6-23,79,52,58,59,16,-100,89,45,46,30.01,29.89,8,-248,9,0.00
2014-6-24,81,48,54,59,4,-100,97,40,45,29.99,29.89,8,-331,11,0.00
2014-6-25,82,62,57,59,37,-100,90,54,43,29.99,29.83,8,-123,11,0.00
2014-6-26,80,54,54,62,28,-100,99,60,49,29.97,29.86,8,-186,11,0.00
2014-6-27,79,63,56,61,51,-100,99,76,53,29.95,29.84,7,-39,10,0.00
2014-6-28,82,53,58,61,12,-100,93,41,49,29.92,29.82,6,-290,8,0.00
2014-6-29,86,68,60,63,45,-100,85,56,41,29.95,29.82,6,-81,9,0.00
2014-6-30,84,70,56,62,58,52,93,68,47,29.95,29.81,7,2,11,0.00
2014-7-1,86,72,60,64,60,57,94,69,45,29.91,29.80,8,2,10,0.00
2014-7-2,88,74,60,63,60,49,91,63,44,29.95,29.82,7,2,9,0.00
2014-7-3,94,79,60,62,57,41,84,51,17,29.97,29.82,6,2,9,0.00
2014-7-4,92,80,66,64,53,33,62,41,22,30.06,29.92,9,3,11,0.00
2014-7-5,90,80,67,55,46,36,54,32,22,30.10,29.97,8,3,13,0.00
2014-7-6,90,78,64,57,45,32,51,32,21,30.09,29.89,8,3,14,0.00
2014-7-7,91,78,63,58,45,26,47,31,17,29.99,29.84,8,3,12,0.00
2014-7-8,88,78,66,62,48,23,75,39,16,30.02,29.86,8,3,11,0.00
2014-7-9,87,75,58,62,50,23,89,46,16,30.04,29.88,8,3,9,0.00
2014-7-10,85,61,54,61,49,46,92,57,44,30.05,29.88,8,2,10,0.00
2014-7-11,83,71,59,61,56,51,85,63,42,30.07,29.95,8,3,11,0.00
2014-7-12,85,71,56,62,56,41,85,61,43,30.07,29.92,9,3,15,0.00
2014-7-13,89,70,64,64,58,55,77,63,43,30.01,29.84,4,1,8,0.00
2014-7-14,92,62,67,65,51,53,82,54,39,30.05,29.90,6,1,8,0.00
2014-7-15,81,67,57,64,58,55,99,71,50,30.12,30.01,5,2,8,0.00
2014-7-16,80,66,55,64,57,54,99,76,47,30.10,29.98,8,2,11,0.01
2014-7-17,76,45,51,60,39,51,99,52,49,30.12,29.99,9,2,13,0.01
2014-7-18,77,52,51,60,46,51,99,62,50,30.08,29.96,6,2,9,0.00
2014-7-19,78,52,57,62,45,55,96,60,53,30.03,29.94,7,2,9,0.30
2014-7-20,80,52,54,61,44,53,99,54,52,30.10,29.95,8,2,12,0.00
2014-7-21,83,72,56,61,59,55,99,65,47,30.09,29.99,9,3,14,0.00
2014-7-22,89,78,58,62,58,46,93,51,32,30.10,29.97,9,3,11,0.00
2014-7-23,95,76,63,61,45,32,52,29,22,30.08,29.88,7,3,12,0.00
2014-7-24,98,37,70,62,18,31,46,10,12,29.92,29.77,6,1,8,0.00
2014-7-25,93,60,66,64,41,45,67,33,19,29.98,29.83,7,2,10,0.00
2014-7-26,89,69,69,65,48,44,73,38,23,30.04,29.90,8,2,11,0.00
2014-7-27,85,77,66,63,57,52,69,51,37,30.03,29.99,4,2,6,0.00
2014-8-9,66,64,63,57,55,54,80,73,67,30.04,30.03,2,1,2,0.00
2014-8-10,87,76,62,63,60,47,94,60,40,30.02,29.90,8,2,11,0.00
2014-8-11,91,76,63,64,57,48,79,54,23,30.01,29.90,8,2,9,0.00
2014-8-12,87,73,62,64,60,55,91,65,41,30.03,29.90,8,2,12,0.00
2014-8-13,87,72,57,64,61,56,99,70,45,30.06,29.90,9,2,12,0.00
2014-8-14,90,78,67,62,56,52,67,50,28,30.02,29.89,8,3,13,0.00
2014-8-15,92,78,63,64,57,52,74,51,34,30.05,29.91,8,3,12,0.00
2014-8-16,91,78,65,60,55,49,76,48,26,30.07,29.91,9,3,12,0.00
2014-8-17,93,79,63,56,50,38,60,37,21,30.04,29.85,9,3,14,0.00
2014-8-18,95,78,60,64,54,34,64,44,28,29.95,29.77,8,3,10,0.00
2014-8-19,80,67,53,61,56,39,99,69,44,29.97,29.85,8,3,13,0.00
2014-8-20,80,67,57,61,57,52,92,71,50,30.01,29.88,6,2,11,0.00
2014-8-21,85,72,58,63,60,55,97,66,45,30.01,29.88,8,3,11,0.00
2014-8-22,86,72,58,63,54,33,90,57,21,30.05,29.90,9,2,11,0.00
2014-8-23,82,70,57,59,42,22,63,37,20,30.02,29.87,8,3,11,0.00
2014-8-24,85,70,57,59,49,36,77,48,21,29.98,29.82,7,3,10,0.00
2014-8-25,84,73,62,60,51,41,78,48,26,30.02,29.86,9,2,11,0.00
2014-8-26,86,74,62,62,54,35,87,53,30,30.06,29.92,8,3,11,0.00
2014-8-27,90,78,63,53,47,42,53,36,22,30.09,29.97,9,3,12,0.00
2014-8-28,96,80,65,56,52,45,62,39,24,30.09,29.87,8,3,14,0.00
2014-8-29,94,80,65,61,48,29,58,34,16,29.98,29.77,7,2,9,0.00
2014-8-30,95,80,63,60,46,27,53,32,13,29.90,29.73,6,2,10,0.00
2014-8-31,91,78,64,62,52,39,64,42,22,29.88,29.76,8,2,11,0.00
2014-9-1,90,78,67,61,45,23,55,33,15,29.87,29.75,7,4,8,0.00
2014-9-2,88,75,60,63,51,24,73,46,18,29.91,29.76,8,3,11,0.00
2014-9-3,83,70,55,62,57,49,99,68,43,29.90,29.70,8,2,11,0.00
2014-9-4,83,68,54,69,59,53,99,77,46,29.86,29.74,8,2,11,0.04
2014-9-5,92,77,59,63,58,51,88,56,25,29.94,29.79,8,2,10,0.00
2014-9-6,96,81,68,66,58,30,75,48,21,29.94,29.78,8,3,10,0.00
2014-9-7,95,85,72,64,58,50,52,40,31,29.87,29.73,8,3,12,0.00
2014-9-8,89,76,62,57,49,38,84,41,24,29.95,29.82,6,2,11,0.02
2014-9-9,86,74,60,58,49,37,74,44,22,30.00,29.85,9,3,15,0.00
2014-9-10,91,76,60,56,48,38,61,40,20,29.98,29.79,8,3,11,0.00
2014-9-11,93,80,66,62,55,52,65,45,27,29.95,29.77,8,2,14,0.00
2014-9-12,96,81,66,62,54,43,64,42,26,29.91,29.73,8,3,11,0.00
2014-9-13,100,85,71,61,49,38,51,30,12,29.86,29.68,9,3,12,0.00
2014-9-14,102,88,75,58,52,45,44,30,15,29.83,29.67,8,4,13,0.00
2014-9-15,101,88,75,60,54,44,45,33,15,29.86,29.72,10,3,14,0.00
2014-9-16,100,86,72,67,58,52,83,40,23,29.84,29.70,12,4,17,0.09
2014-9-17,94,82,67,66,61,52,77,50,37,29.88,29.71,11,4,15,0.00
2014-9-18,81,69,58,65,59,52,99,74,53,29.95,29.82,9,3,12,0.00
2014-9-19,78,66,58,62,60,58,99,82,56,29.97,29.84,6,2,11,0.00
2014-9-20,78,65,56,64,59,54,99,84,57,30.02,29.89,7,2,11,0.01
2014-9-21,80,65,50,61,57,50,99,79,47,30.05,29.92,7,2,11,0.01
2014-9-22,85,73,59,62,55,44,89,56,38,30.04,29.89,8,2,10,0.00
2014-9-23,91,78,59,61,47,31,71,37,20,30.03,29.86,6,2,8,0.00
2014-9-24,94,80,65,53,46,39,55,33,16,29.98,29.81,8,3,11,0.00
2014-9-25,93,78,66,59,50,42,70,40,20,29.97,29.86,8,3,11,0.00
2014-9-26,83,69,52,61,56,49,98,67,36,29.99,29.82,8,2,13,0.00
2014-9-27,71,59,50,57,53,49,99,81,53,30.00,29.83,8,3,12,0.00
2014-9-28,73,60,51,57,54,51,99,83,47,30.02,29.89,10,3,16,0.00
2014-9-29,79,64,50,59,54,49,99,73,44,30.01,29.84,8,2,11,0.00
2014-9-30,86,70,56,54,49,43,78,51,27,29.97,29.76,8,3,11,0.00
2014-10-1,83,68,53,61,53,44,86,59,35,29.93,29.75,8,2,11,0.00
2014-10-2,94,80,66,47,34,26,38,20,14,30.05,29.87,10,5,17,0.00
2014-10-3,99,82,70,38,32,24,22,16,11,30.05,29.91,11,5,17,0.00
2014-10-4,97,83,68,38,32,24,20,16,12,30.03,29.84,9,4,11,0.00
2014-10-5,96,80,64,39,32,24,28,18,13,30.00,29.83,8,3,11,0.00
2014-10-6,92,76,60,39,31,22,31,20,14,30.00,29.81,7,2,10,0.00
2014-10-7,92,76,64,41,33,27,39,21,14,29.97,29.79,8,2,13,0.00
2014-10-8,85,73,61,55,44,33,66,38,20,29.95,29.80,9,2,12,0.00
2014-10-9,77,66,52,59,53,38,93,65,41,30.03,29.90,6,2,8,0.00
2014-10-10,81,69,55,60,53,48,89,60,33,30.04,29.92,8,2,11,0.00
2014-10-11,88,74,61,61,49,35,74,44,20,30.02,29.88,6,3,9,0.00
2014-10-12,86,69,58,62,50,35,87,53,26,30.01,29.84,7,2,10,0.00
2014-10-13,89,76,61,61,44,29,73,35,15,30.06,29.93,8,3,12,0.00
2014-10-14,83,68,56,59,50,35,99,56,26,30.05,29.90,6,2,8,0.00
2014-10-15,74,61,50,58,54,50,99,81,46,30.08,29.94,7,2,11,0.00
2014-10-16,74,62,50,59,54,50,99,81,48,30.08,29.94,8,2,12,0.00
2014-10-17,73,60,52,60,56,51,99,87,57,30.04,29.92,8,2,11,0.00
2014-10-18,73,61,50,58,56,50,99,84,53,30.01,29.85,8,2,11,0.00
2014-10-19,77,62,50,60,55,50,99,80,50,29.98,29.84,8,2,11,0.00
2014-10-20,79,63,52,61,57,51,99,84,49,29.99,29.86,6,2,9,0.00
2014-10-21,80,65,52,58,52,41,99,69,31,29.99,29.83,7,2,11,0.00
2014-10-22,87,70,53,56,47,32,73,46,16,30.02,29.88,8,2,11,0.00
2014-10-23,89,76,64,54,42,30,58,31,15,30.03,29.91,8,2,9,0.00
2014-10-24,90,75,60,44,34,23,46,25,15,30.08,29.92,10,2,14,0.00
2014-10-25,82,70,56,54,46,40,77,45,23,30.10,29.99,7,2,11,0.00
2014-10-26,75,60,51,60,52,41,98,78,52,30.10,29.90,5,2,11,0.00
2014-10-27,73,60,48,58,52,45,99,77,46,30.03,29.88,8,2,11,0.00
2014-10-28,80,65,50,59,54,48,99,70,42,30.10,29.94,7,2,10,0.00
2014-10-29,86,72,58,53,41,31,62,34,18,30.09,29.94,8,3,12,0.00
2014-10-30,85,66,55,60,46,37,99,52,20,30.08,29.92,8,2,13,0.00
2014-10-31,68,58,51,56,53,46,99,85,58,30.05,29.91,7,2,11,0.04
2014-11-1,57,52,48,54,50,45,99,92,66,30.06,29.90,11,4,15,0.65
2014-11-2,62,51,41,57,46,41,99,84,55,30.16,30.01,8,2,14,0.07
2014-11-3,70,56,42,42,31,18,99,44,19,30.22,30.07,15,4,20,0.00
2014-11-4,76,64,54,30,23,18,27,21,17,30.22,30.07,8,4,14,0.00
2014-11-5,86,74,64,36,27,22,21,18,15,30.15,29.99,16,6,21,0.00
2014-11-6,89,76,65,37,30,25,26,18,15,30.18,30.05,11,5,12,0.00
2014-11-7,91,74,59,38,30,24,33,21,14,30.18,29.97,8,3,13,0.00
2014-11-8,89,76,61,39,31,24,33,20,15,30.09,29.95,9,3,12,0.00
2014-11-9,87,68,52,55,39,27,81,38,18,30.07,29.80,6,2,9,0.00
2014-11-10,70,58,42,55,47,33,99,70,39,29.98,29.84,5,2,9,0.00
2014-11-11,60,55,52,53,51,49,98,87,69,30.02,29.94,8,2,11,0.00
2014-11-12,64,54,47,54,51,46,99,89,58,30.12,29.96,6,2,11,0.00
2014-11-13,67,55,48,56,51,48,99,87,56,30.12,30.02,6,2,9,0.00
2014-11-14,66,55,46,58,53,46,99,94,67,30.12,29.99,8,2,9,0.19
2014-11-15,66,54,46,57,52,45,99,93,65,30.15,30.01,7,2,10,0.01
2014-11-16,66,57,47,50,28,20,99,41,19,30.20,30.09,18,8,27,0.14
2014-11-17,71,62,56,26,22,20,25,22,18,30.19,30.06,19,9,27,0.19
2014-11-18,77,62,46,31,24,21,42,24,16,30.25,30.08,16,6,21,0.00
2014-11-19,70,56,45,50,30,13,78,41,18,30.25,30.07,8,2,10,0.00
2014-11-20,66,54,42,54,44,19,99,72,33,30.19,30.03,7,2,10,0.04
2014-11-21,65,54,47,56,49,43,99,86,57,30.15,29.95,6,2,11,0.15
2014-11-22,70,56,45,51,44,39,97,69,33,30.17,30.02,8,2,13,0.00
2014-11-23,71,60,45,49,30,17,90,40,17,30.22,30.05,12,6,16,0.00
2014-11-24,74,63,52,30,22,15,24,21,17,30.35,30.16,18,7,27,0.00
2014-11-25,78,65,52,32,24,18,27,22,17,30.41,30.24,10,5,17,0.00
2014-11-26,89,73,53,36,28,16,25,19,15,30.35,30.11,9,4,13,0.00
2014-11-27,87,74,58,37,29,22,26,19,15,30.20,29.99,13,4,16,0.00
2014-11-28,85,65,53,36,27,20,45,26,15,30.09,29.88,5,2,8,0.00
2014-11-29,77,61,49,47,32,24,84,39,17,29.98,29.81,8,3,10,0.00
2014-11-30,58,54,50,54,52,48,98,93,79,30.18,29.96,4,2,10,0.48
2014-12-1,67,57,47,55,49,39,99,75,44,30.23,30.05,8,3,11,0.02
2014-12-2,63,56,51,54,48,37,99,80,38,30.07,29.93,8,4,12,2.16
2014-12-3,62,58,55,61,58,54,99,99,97,30.04,29.95,8,2,10,2.07
2014-12-4,68,58,48,62,54,48,99,91,59,30.16,29.97,7,2,9,0.65
2014-12-5,67,56,49,55,52,48,99,86,57,30.22,30.07,7,2,9,0.00
2014-12-6,70,59,48,55,50,48,99,76,54,30.26,30.13,8,3,12,0.00
2014-12-7,78,64,52,53,46,40,84,55,26,30.25,30.09,11,5,17,0.00
2014-12-8,79,65,53,52,44,40,87,49,25,30.17,30.02,8,2,11,0.00
2014-12-9,77,64,51,54,42,32,85,48,22,30.17,29.98,6,2,11,0.00
2014-12-10,74,60,50,51,40,32,78,49,27,30.10,29.95,11,2,15,0.00
2014-12-11,70,57,50,55,51,44,98,82,55,30.04,29.91,5,2,11,0.00
2014-12-12,53,49,45,52,48,44,99,98,93,30.15,29.93,11,3,21,2.14
2014-12-13,59,48,39,49,44,38,99,87,52,30.24,30.09,6,2,8,0.04
2014-12-14,62,49,38,46,42,38,99,78,51,30.20,30.05,8,2,9,0.00
2014-12-15,61,51,44,45,39,34,97,64,43,30.13,29.98,7,2,8,0.00
2014-12-16,52,48,45,49,47,44,99,97,87,30.11,30.00,9,3,12,0.14
2014-12-17,55,48,42,54,46,41,99,96,85,30.22,30.02,8,2,11,0.38
2014-12-18,58,48,42,50,45,42,99,89,59,30.29,30.16,5,1,8,0.00
2014-12-19,64,50,41,50,45,40,99,85,50,30.30,30.17,6,2,10,0.00
2014-12-20,60,48,40,53,46,40,99,94,67,30.26,30.16,4,1,8,0.00
2014-12-21,69,55,44,57,49,43,99,81,59,30.24,30.03,4,1,7,0.00
2014-12-22,80,62,47,53,46,38,95,61,29,30.13,29.93,6,1,10,0.00
2014-12-23,78,68,58,40,34,28,51,29,22,30.16,29.99,13,5,17,0.00
2014-12-24,73,59,48,51,38,30,99,48,28,30.18,29.89,10,3,13,0.00
2014-12-25,58,51,44,51,30,14,99,53,24,29.98,29.82,14,5,21,0.07
2014-12-26,59,48,43,22,13,10,28,24,22,30.25,29.98,15,7,23,0.05
2014-12-27,58,46,36,24,15,10,51,29,23,30.41,30.24,12,5,16,0.00
2014-12-28,58,42,33,36,25,14,78,52,27,30.41,30.17,5,2,10,0.00
2014-12-29,61,45,32,45,37,26,99,76,49,30.27,30.03,5,2,8,0.00
2014-12-30,48,42,32,47,40,31,99,96,85,30.12,29.97,19,3,25,0.27
2014-12-31,44,32,26,31,22,15,99,70,37,30.21,29.98,21,8,36,0.08
2015-1-1,55,38,26,36,28,19,99,69,34,30.25,30.09,7,2,9,0.07
2015-1-2,56,41,31,42,34,24,99,76,35,30.28,30.07,6,2,8,0.00